Waarnemingen

Advertentie
Mijn weer
Salon, Frankrijk (7648): temperatuur & dauwpunt: 14.04.2018 12:00:00 - 20.04.2018 12:00:00 (CEST)Salon, Frankrijk (7648): temperatuur 5cm: 14.04.2018 12:00:00 - 20.04.2018 12:00:00 (CEST)Salon, Frankrijk (7648): windsnelheid & windstoten: 14.04.2018 12:00:00 - 20.04.2018 12:00:00 (CEST)Salon, Frankrijk (7648): windrichting: 14.04.2018 12:00:00 - 20.04.2018 12:00:00 (CEST)Salon, Frankrijk (7648): luchtdruk: 14.04.2018 12:00:00 - 20.04.2018 12:00:00 (CEST)Salon, Frankrijk (7648): zicht: 14.04.2018 12:00:00 - 20.04.2018 12:00:00 (CEST)Salon, Frankrijk (7648): neerslag: 14.04.2018 12:00:00 - 20.04.2018 12:00:00 (CEST)
Datum & Tijd tt [°C] td [°C] tt 5cm [°C] ff [km/u] ff [kn] fx [km/u] fx [kn] dd ppp [hPa] vv [km] rr [mm]
20.04.2018 12:00:00 25,4 7,5 31,7 5 3 29 15 NO 1023,7 53 0,0
20.04.2018 11:00:00 24,4 9,9 28,7 10 5 21 12 NO 1023,8 53 0,0
20.04.2018 10:00:00 21,4 10,8 24,0 6 3 54 29 NO 1023,9 51 0,0
20.04.2018 09:00:00 18,1 10,0 18,0 5 3 9 5 NNO 1023,9 39 0,0
20.04.2018 08:00:00 13,7 9,3 6,2 6 3 9 5 NO 1023,9 35 0,0
20.04.2018 07:00:00 8,7 6,5 6,0 0 0 4 2 N 1024,0 15 0,0
20.04.2018 06:00:00 9,3 6,7 6,9 0 0 4 2 N 1023,6 28 0,0
20.04.2018 05:00:00 10,3 7,4 6,7 0 0 5 3 N 1023,7 26 0,0
20.04.2018 04:00:00 9,8 6,9 7,1 0 0 6 3 N 1024,1 29 0,0
20.04.2018 03:00:00 10,7 7,4 8,1 4 2 8 4 N 1024,4 30 0,0
20.04.2018 02:00:00 10,7 7,2 8,0 3 2 5 3 NNO 1024,9 29 0,0
20.04.2018 01:00:00 11,4 7,9 8,9 3 2 4 2 NO 1025,1 29 0,0
20.04.2018 00:00:00 12,0 8,1 9,6 0 0 4 2 N 1025,3 32 0,0
19.04.2018 23:00:00 12,9 8,4 10,5 0 0 4 2 N 1025,5 30 0,0
19.04.2018 22:00:00 14,8 8,9 11,6 0 0 18 10 N 1025,4 41 0,0
19.04.2018 21:00:00 16,8 8,2 13,9 2 1 5 3 N 1025,0 43 0,0
19.04.2018 20:00:00 20,8 6,7 20,0 2 1 13 7 WZW 1024,7 55 0,0
19.04.2018 19:00:00 22,7 7,3 25,5 11 6 19 11 ZW 1024,7 49 0,0
19.04.2018 18:00:00 24,1 6,8 28,0 12 6 21 11 ZW 1024,7 44 0,0
19.04.2018 17:00:00 23,6 7,6 28,6 14 7 26 14 ZZW 1024,9 56 0,0
19.04.2018 16:00:00 23,9 6,2 29,4 17 9 30 16 ZZW 1025,1 57 0,0
19.04.2018 15:00:00 24,4 7,1 30,0 17 9 28 15 ZZW 1025,4 60 0,0
19.04.2018 14:00:00 25,8 7,8 31,8 8 5 20 11 ZW 1025,6 60 0,0
19.04.2018 13:00:00 24,9 6,1 30,0 8 4 32 17 WZW 1026,0 18 0,0
19.04.2018 12:00:00 24,9 5,1 30,3 15 8 28 15 OZO 1026,5 60 0,0
19.04.2018 11:00:00 22,8 10,9 26,4 8 4 14 7 NNW 1026,7 44 0,0
19.04.2018 10:00:00 20,5 11,7 22,5 4 2 13 7 NNO 1026,9 48 0,0
19.04.2018 09:00:00 17,3 11,1 15,8 7 4 11 6 NO 1026,8 26 0,0
19.04.2018 08:00:00 11,6 9,5 6,2 0 0 3 2 N 1026,9 15 0,0
19.04.2018 07:00:00 9,1 7,0 6,0 0 0 5 3 N 1026,6 22 0,0
19.04.2018 06:00:00 10,1 8,0 6,5 2 1 5 3 WNW 1026,6 27 0,0
19.04.2018 05:00:00 10,0 8,1 6,9 0 0 5 3 N 1026,8 30 0,0
19.04.2018 04:00:00 9,9 7,8 6,7 0 0 5 3 N 1027,0 29 0,0
19.04.2018 03:00:00 10,6 8,0 7,9 0 0 7 4 N 1027,2 32 0,0
19.04.2018 02:00:00 10,7 7,9 8,1 4 2 6 3 NO 1027,4 38 0,0
19.04.2018 01:00:00 12,3 8,9 8,9 0 0 4 2 N 1027,6 41 0,0
19.04.2018 00:00:00 12,9 9,3 9,8 3 2 5 3 NNO 1027,5 44 0,0
18.04.2018 23:00:00 14,3 10,1 10,8 0 0 5 3 N 1027,2 42 0,0
18.04.2018 22:00:00 16,0 10,7 13,1 0 0 3 2 N 1027,2 50 0,0
18.04.2018 21:00:00 19,1 9,6 17,2 3 2 11 6 ZZW 1026,4 56 0,0
18.04.2018 20:00:00 20,5 9,1 19,9 7 4 17 9 WZW 1025,9 56 0,0
18.04.2018 19:00:00 22,4 9,5 24,6 13 7 25 14 ZW 1025,7 50 0,0
18.04.2018 18:00:00 24,0 8,0 27,5 16 9 25 13 ZZW 1025,3 60 0,0
18.04.2018 17:00:00 24,3 8,3 28,8 13 7 26 14 ZZW 1025,3 20 0,0
18.04.2018 16:00:00 25,0 8,0 29,8 15 8 27 14 ZZW 1025,3 60 0,0
18.04.2018 15:00:00 24,9 8,4 29,8 18 10 29 16 ZZW 1025,6 52 0,0
18.04.2018 14:00:00 25,6 9,0 30,2 18 10 27 15 ZZW 1025,6 55 0,0
18.04.2018 13:00:00 25,5 8,9 30,2 17 9 23 13 ZW 1025,9 19 0,0
18.04.2018 12:00:00 25,6 8,6 29,2 17 9 35 19 OZO 1026,2 34 0,0
18.04.2018 11:00:00 24,8 9,1 27,1 20 11 35 19 ZO 1026,3 35 0,0
18.04.2018 10:00:00 23,3 10,4 22,6 14 8 27 15 OZO 1025,9 45 0,0
18.04.2018 09:00:00 18,9 11,0 17,3 10 5 15 8 NO 1025,7 45 0,0
18.04.2018 08:00:00 15,2 10,6 8,4 10 5 15 8 ONO 1025,4 45 0,0
18.04.2018 07:00:00 12,3 8,6 7,8 9 5 15 8 ONO 1025,0 44 0,0
18.04.2018 06:00:00 12,0 8,8 8,0 8 5 14 8 NO 1024,6 42 0,0
18.04.2018 05:00:00 11,3 8,3 8,9 4 2 7 4 NNO 1024,7 44 0,0
18.04.2018 04:00:00 11,6 8,8 8,8 0 0 3 2 N 1024,7 37 0,0
18.04.2018 03:00:00 11,9 9,1 9,0 0 0 11 6 N 1024,8 33 0,0
18.04.2018 02:00:00 11,7 9,3 8,8 4 2 11 6 O 1024,9 30 0,0
18.04.2018 01:00:00 11,8 9,9 9,7 9 5 13 7 ONO 1024,8 30 0,0
18.04.2018 00:00:00 12,5 10,2 10,6 11 6 12 7 ONO 1024,5 27 0,0
17.04.2018 23:00:00 13,4 9,8 10,9 3 1 10 5 NNO 1024,2 30 0,0
17.04.2018 22:00:00 16,9 10,7 14,3 0 0 11 6 N 1023,6 47 0,0
17.04.2018 21:00:00 18,7 10,5 15,6 0 0 14 8 N 1022,8 54 0,0
17.04.2018 20:00:00 20,5 11,4 19,5 10 5 23 12 Z 1021,5 58 0,0
17.04.2018 19:00:00 22,9 11,6 25,5 15 8 25 14 ZZW 1020,9 60 0,0
17.04.2018 18:00:00 24,5 12,4 28,8 16 8 26 14 ZZW 1020,4 45 0,0
17.04.2018 17:00:00 26,0 11,4 31,0 10 6 45 25 WNW 1020,4 36 0,0
17.04.2018 16:00:00 25,9 11,3 31,4 10 5 19 10 WNW 1020,3 56 0,0
17.04.2018 15:00:00 25,1 10,5 31,2 8 5 16 8 WNW 1020,6 59 0,0
17.04.2018 14:00:00 24,6 10,8 29,5 5 3 13 7 NNW 1020,6 54 0,0
17.04.2018 13:00:00 23,1 11,2 27,7 9 5 17 9 WNW 1020,8 60 0,0
17.04.2018 12:00:00 21,7 11,4 24,9 10 6 18 10 NW 1021,1 20 0,0
17.04.2018 11:00:00 19,9 10,3 22,2 11 6 17 9 NW 1021,0 60 0,0
17.04.2018 10:00:00 17,8 9,7 19,1 10 6 24 13 NNW 1020,6 60 0,0
17.04.2018 09:00:00 15,6 8,8 15,5 6 4 13 7 N 1020,3 60 0,0
17.04.2018 08:00:00 11,9 8,4 5,9 3 2 6 3 O 1019,5 37 0,0
17.04.2018 07:00:00 8,9 6,5 5,8 0 0 8 4 N 1018,6 51 0,0
17.04.2018 06:00:00 9,7 6,6 7,4 5 3 10 5 O 1018,1 59 0,0
17.04.2018 05:00:00 13,1 7,3 10,0 5 3 16 8 NNO 1017,3 60 0,0
17.04.2018 04:00:00 13,7 7,2 11,3 5 3 17 9 NO 1017,2 60 0,0
17.04.2018 03:00:00 14,7 7,5 12,4 8 5 20 11 N 1016,6 60 0,0
17.04.2018 02:00:00 15,6 7,6 14,5 14 7 38 21 N 1016,1 60 0,0
17.04.2018 01:00:00 16,3 7,5 14,1 24 13 37 20 NNW 1015,5 60 0,0
17.04.2018 00:00:00 16,7 7,3 15,4 12 7 37 20 N 1015,3 60 0,0
16.04.2018 23:00:00 17,6 7,0 16,5 19 10 37 20 NW 1014,6 60 0,0
16.04.2018 22:00:00 18,3 6,8 17,0 13 7 35 19 WNW 1014,4 60 0,0
16.04.2018 21:00:00 19,0 7,4 18,0 23 12 36 20 NW 1013,5 60 0,0
16.04.2018 20:00:00 20,2 7,9 19,5 22 12 44 24 NW 1013,0 55 0,0
16.04.2018 19:00:00 21,5 9,1 20,9 26 14 46 25 NNW 1012,7 58 0,0
16.04.2018 18:00:00 20,9 9,5 21,4 22 12 44 24 NW 1012,4 57 0,0
16.04.2018 17:00:00 22,4 10,8 25,1 22 12 40 21 NW 1012,2 58 0,0
16.04.2018 16:00:00 22,7 9,5 25,8 18 10 34 18 WNW 1012,2 60 0,0
16.04.2018 15:00:00 22,0 9,8 24,9 16 8 27 15 NW 1012,0 60 0,0
16.04.2018 14:00:00 20,8 9,7 22,2 14 8 26 14 WNW 1012,3 52 0,0
16.04.2018 13:00:00 20,4 9,9 23,0 15 8 26 14 WNW 1012,4 46 0,0
16.04.2018 12:00:00 19,9 9,7 23,1 14 7 24 13 NW 1012,4 39 0,0
16.04.2018 11:00:00 18,3 9,6 19,9 14 7 22 12 N 1012,1 60 0,0
16.04.2018 10:00:00 16,5 8,9 17,9 14 7 26 14 N 1012,0 54 0,0
16.04.2018 09:00:00 15,3 8,5 14,7 8 5 20 11 N 1011,7 58 0,0
16.04.2018 08:00:00 14,1 8,3 10,9 9 5 21 12 N 1011,1 60 0,0
16.04.2018 07:00:00 12,6 8,3 10,1 0 0 26 14 N 1010,7 60 0,0
16.04.2018 06:00:00 12,9 9,0 10,9 10 6 22 12 N 1010,3 60 0,0
16.04.2018 05:00:00 13,5 9,0 12,1 12 6 21 11 NNW 1009,9 60 0,0
16.04.2018 04:00:00 14,0 9,2 12,7 18 10 30 16 NW 1010,4 60 0,0
16.04.2018 03:00:00 14,1 9,3 10,6 14 8 23 12 NNW 1010,2 60 0,0
16.04.2018 02:00:00 12,8 8,7 9,8 4 2 18 10 Z 1010,6 60 0,0
16.04.2018 01:00:00 11,8 8,1 7,9 4 2 8 5 NW 1010,6 60 0,0
16.04.2018 00:00:00 11,1 7,8 8,5 3 2 10 5 ZW 1010,7 58 0,0
15.04.2018 23:00:00 12,0 8,5 9,3 3 1 4 2 Z 1010,8 55 0,0
15.04.2018 22:00:00 14,1 8,5 10,4 0 0 7 4 N 1010,5 60 0,0
15.04.2018 21:00:00 16,7 8,4 14,6 5 3 11 6 ZW 1009,7 60 0,0
15.04.2018 20:00:00 18,9 8,5 17,7 4 2 26 14 W 1009,2 3,5 0,0
15.04.2018 19:00:00 20,8 8,8 20,8 15 8 27 14 W 1008,9 59 0,0
15.04.2018 18:00:00 21,8 10,3 23,9 17 9 29 16 WZW 1008,3 45 0,0
15.04.2018 17:00:00 21,8 10,0 23,0 10 5 29 16 W 1008,4 46 0,0
15.04.2018 16:00:00 21,5 10,6 23,1 17 9 31 17 W 1009,1 54 0,0
15.04.2018 15:00:00 21,5 10,9 23,8 16 9 31 17 W 1009,1 55 0,0
15.04.2018 14:00:00 21,6 11,6 25,8 11 6 24 13 WNW 1009,8 59 0,0
15.04.2018 13:00:00 20,1 10,8 24,3 11 6 23 13 NW 1010,8 59 0,0
15.04.2018 12:00:00 18,4 11,0 22,2 8 4 18 10 NW 1011,4 60 0,0
15.04.2018 11:00:00 16,7 10,1 20,2 13 7 22 12 NNW 1011,9 60 0,0
15.04.2018 10:00:00 15,4 10,0 17,3 5 3 10 6 WNW 1012,4 56 0,0
15.04.2018 09:00:00 11,5 8,7 9,6 0 0 6 3 N 1012,4 55 0,0
15.04.2018 08:00:00 8,7 7,6 5,5 4 2 12 6 NW 1012,4 36 0,0
15.04.2018 07:00:00 8,2 7,1 5,0 2 1 10 5 NNW 1012,5 38 0,0
15.04.2018 06:00:00 7,6 6,5 5,4 7 4 11 6 NNW 1012,4 40 0,0
15.04.2018 05:00:00 7,5 6,4 4,8 3 2 7 4 ZO 1012,9 24 0,0
15.04.2018 04:00:00 7,9 6,7 5,7 3 1 7 4 OZO 1013,6 26 0,0
15.04.2018 03:00:00 8,6 6,6 6,1 0 0 6 3 N 1014,4 44 0,0
15.04.2018 02:00:00 9,4 6,7 6,9 0 0 6 3 N 1014,9 58 0,0
15.04.2018 01:00:00 11,0 7,5 8,5 5 3 15 8 OZO 1015,1 60 0,0
15.04.2018 00:00:00 13,2 8,5 11,0 6 3 24 13 N 1015,4 60 0,0
14.04.2018 23:00:00 14,2 8,4 13,5 10 5 32 17 NNO 1015,7 60 0,0
14.04.2018 22:00:00 14,7 8,6 14,1 24 13 41 22 NNW 1016,2 60 0,0
14.04.2018 21:00:00 14,8 8,7 14,4 27 15 47 26 NNW 1015,8 60 0,0
14.04.2018 20:00:00 15,2 8,2 14,8 27 14 45 25 NNW 1015,7 60 0,0
14.04.2018 19:00:00 15,9 9,6 15,9 26 14 39 21 NNW 1015,5 59 0,0
14.04.2018 18:00:00 16,2 10,1 16,8 24 13 40 22 NNW 1015,9 53 0,0
14.04.2018 17:00:00 16,3 9,9 17,0 26 14 37 20 NNW 1016,0 56 0,0
14.04.2018 16:00:00 16,8 10,4 17,7 18 10 28 15 NNW 1016,6 58 0,0
14.04.2018 15:00:00 17,6 10,0 17,7 17 9 23 13 NNW 1016,6 60 0,0
14.04.2018 14:00:00 19,2 7,6 21,0 12 6 17 9 NNO 1016,7 60 0,0
14.04.2018 13:00:00 19,0 7,7 21,5 11 6 24 13 NO 1017,3 57 0,0
14.04.2018 12:00:00 17,5 8,1 16,6 11 6 18 10 NNO 1017,5 55 0,0

tt = temperatuur
td = dauwpunt
tt 5cm = temperatuur 5cm
ff = windsnelheid
fx = windstoten
dd = windrichting
ppp = luchtdruk
vv = zicht
rr = neerslag

Weerstations in de omgeving